Location: Sandy Point Observatory
(37.2521°N, 76.9605°W)
Time: 15:47:52
(UTC-04:00)

N. Korean satellite - Visible Passes

Search period start: 21 September 2018 00:00
Search period end: 01 October 2018 00:00
Orbit: 458 x 511 km, 97.2° (Epoch: 20 September)

Date Brightness Start Highest point End Pass type
(mag) Time Alt. Az. Time Alt. Az. Time Alt. Az.
22 Sep 10.5 06:26:32 10° ENE 06:27:57 12° E 06:29:22 10° ESE visible
23 Sep 9.8 19:42:02 10° SW 19:44:16 16° W 19:46:30 10° NW visible
26 Sep 10.8 06:23:12 10° ENE 06:24:01 11° E 06:24:50 10° ESE visible
27 Sep 9.8 19:37:48 10° SW 19:40:17 18° W 19:42:48 10° NW visible
